Content
SEND FEEDBACK

Daily
Averages
Monthly
Summary
France

OISSEL, FRANCE


Home > Europe > France
Elevation: 515 feet     Latitude: 49 22N     Longitude: 001 10E

WEATHER
 
SELECT A DAY
Number of Records: 173,480;   Date Range: 7/1/96 - 8/31/14
 
SHARE

PRINT THIS DATA

[ ← Previous Day ]
WEATHER ALMANAC - MARCH 22, 2013
[ Next Day → ]
[ °C ]   °F
Weather ElementAverageHighLow
Temperature45.5 °F53.6 °F (4:30 pm)39.2 °F (5:30 am)
Dewpoint37.3 °F41 °F (2:00 pm)33.8 °F (7:00 am)
Humidity73.2 %93 % (1:00 am)52 % (7:00 pm)
Barometer29.72 in29.91 in (1:00 am)29.59 in (6:00 pm)
Wind Speed14.4 mph19.6 mph (2:00 pm)
Weather ElementAverage
Visibility5.5 mi
Wind DirectionESE (108.2 °)

Weather ElementTotal
Precipitation---
Heating Degree Days18.6 (Base 65)
Averaged from 50 records on March 22, 2013
WEATHER CONDITIONS BREAKOUT
WIND DIRECTION BREAKOUT
WEATHER BY HOUR - MARCH 22, 2013
[ °C ]   °F
Local TimeTemperatureDewpointHumidityBarometerVisibilityWind DirectionWind SpeedGust SpeedPrecipitationEventsConditions
12:30 AM42.8 °F39.2 °F87 %29.89 in2.5 miESE (110°)10.4 mphOvercast
1:00 AM42.0 °F38.0 °F83 %29.91 in2.0 miESE (120°)11.5 mphMist
1:00 AM41.0 °F39.2 °F93 %29.89 inESE (120°)11.5 mphOvercast
1:30 AM41.0 °F39.2 °F93 %29.86 inESE (120°)11.5 mphOvercast
2:00 AM41.0 °F37.4 °F87 %29.86 inESE (120°)10.4 mphOvercast
2:30 AM41.0 °F37.4 °F87 %29.86 inESE (110°)11.5 mphOvercast
3:00 AM41.0 °F37.4 °F87 %29.86 inESE (110°)11.5 mphRainLight Rain
3:30 AM41.0 °F37.4 °F87 %29.83 in3.1 miESE (120°)9.2 mphMist
4:00 AM41.0 °F35.6 °F81 %29.83 in3.1 miESE (110°)11.5 mphMist
4:30 AM41.0 °F35.6 °F81 %29.80 in4.3 miEast (100°)13.8 mph
5:00 AM41.0 °F35.6 °F81 %29.80 in4.3 miESE (110°)11.5 mph
5:30 AM39.2 °F35.6 °F87 %29.80 in4.3 miESE (110°)12.7 mph
6:00 AM39.2 °F35.6 °F87 %29.80 in4.3 miEast (100°)13.8 mph
6:30 AM39.2 °F35.6 °F87 %29.77 in4.3 miESE (110°)12.7 mph
7:00 AM39.2 °F33.8 °F81 %29.77 in5.0 miESE (110°)13.8 mph
7:30 AM39.2 °F35.6 °F87 %29.77 in4.3 miESE (110°)13.8 mph
8:00 AM39.2 °F33.8 °F81 %29.77 in4.3 miEast (100°)13.8 mph
8:30 AM39.2 °F33.8 °F81 %29.77 in5.0 miESE (110°)12.7 mph
9:00 AM41.0 °F35.6 °F81 %29.74 in5.6 miESE (110°)16.1 mph
9:30 AM41.0 °F35.6 °F81 %29.74 in5.6 miESE (110°)16.1 mph
10:00 AM42.8 °F35.6 °F76 %29.74 in5.6 miESE (110°)15.0 mph
10:30 AM44.6 °F37.4 °F76 %29.74 in6.2 miESE (110°)15.0 mph
11:00 AM46.4 °F37.4 °F71 %29.74 in6.2 miESE (120°)15.0 mph
11:30 AM46.4 °F37.4 °F71 %29.71 in6.2 miESE (110°)17.3 mphMostly Cloudy
12:00 PM48.2 °F37.4 °F66 %29.71 in5.0 miESE (120°)17.3 mph
12:30 PM48.2 °F37.4 °F66 %29.71 in6.2 miESE (110°)18.4 mph
1:00 PM49.0 °F39.0 °F58 %29.71 in6.0 miESE (110°)18.4 mphMostly Cloudy
1:00 PM48.2 °F39.2 °F71 %29.68 in5.6 miESE (110°)18.4 mph
1:30 PM50.0 °F39.2 °F66 %29.68 in6.2 miESE (110°)17.3 mph
2:00 PM51.8 °F41.0 °F67 %29.68 in6.2 miEast (100°)19.6 mph
2:30 PM51.8 °F37.4 °F58 %29.65 in6.2 miESE (110°)16.1 mph
3:00 PM51.8 °F39.2 °F62 %29.65 in6.2 miESE (110°)16.1 mph
3:30 PM51.8 °F39.2 °F62 %29.65 in6.2 miEast (100°)17.3 mph
4:00 PM51.8 °F39.2 °F62 %29.62 in6.2 miESE (110°)16.1 mph
4:30 PM53.6 °F39.2 °F58 %29.62 in6.2 miEast (100°)17.3 mph
5:00 PM51.8 °F39.2 °F62 %29.62 in6.2 miEast (100°)16.1 mph
5:30 PM51.8 °F37.4 °F58 %29.62 in6.2 miEast (100°)16.1 mph
6:00 PM50.0 °F37.4 °F62 %29.59 in6.2 miEast (100°)19.6 mph
6:30 PM50.0 °F37.4 °F62 %29.62 in6.2 miESE (120°)16.1 mph
7:00 PM50.0 °F38.0 °F52 %29.65 in8.0 miESE (110°)16.1 mphClear
7:00 PM50.0 °F37.4 °F62 %29.62 in6.2 miESE (110°)16.1 mph
7:30 PM48.2 °F37.4 °F66 %29.62 in6.2 miESE (110°)15.0 mph
8:00 PM48.2 °F37.4 °F66 %29.65 in6.2 miEast (100°)12.7 mph
8:30 PM48.2 °F37.4 °F66 %29.65 in6.2 miEast (100°)12.7 mph
9:00 PM48.2 °F37.4 °F66 %29.65 in6.2 miEast (100°)12.7 mph
9:30 PM48.2 °F37.4 °F66 %29.65 in6.2 miEast (100°)10.4 mph
10:00 PM46.4 °F37.4 °F71 %29.65 in6.2 miEast (100°)12.7 mph
10:30 PM46.4 °F37.4 °F71 %29.65 in6.2 miEast (100°)13.8 mph
11:00 PM46.4 °F37.4 °F71 %29.65 in6.2 miEast (100°)12.7 mphRainLight Rain
11:30 PM46.4 °F37.4 °F71 %29.65 in6.2 miEast (100°)11.5 mphRainLight Rain
Hourly data recorded from LFOP, located miles away from Oissel, France







STORIES FROM OUR PARTNERS